CES8411 ZSPD-ZSSS

Flight info

Callsign CES8411
Flight time 0h 20m
Altitude 3900
Route JTN
Aircraft A21N/M-SDE2E3FGHIRWXY/LB1

Departure

Time 2026-04-30 13:19
Airport Shanghai Pudong International Airport (ZSPD)

Arrival

Time 2026-04-30 13:39
Airport Shanghai Hongqiao International Airport (ZSSS)
Time Latitude Longitude Altitude Speed Heading
2026-04-30 12:56 31.15277 121.80756 22 ft 0 kts 252°
2026-04-30 13:11 31.15281 121.80771 22 ft 2 kts 252°
2026-04-30 13:11 31.15286 121.80787 22 ft 2 kts 255°
2026-04-30 13:11 31.15288 121.80804 22 ft 2 kts 269°
2026-04-30 13:11 31.15287 121.80822 22 ft 2 kts 281°
2026-04-30 13:12 31.15283 121.80839 22 ft 2 kts 292°
2026-04-30 13:12 31.15276 121.80855 22 ft 2 kts 304°
2026-04-30 13:12 31.15266 121.80869 22 ft 2 kts 315°
2026-04-30 13:13 31.15241 121.80888 22 ft 1 kts 338°
2026-04-30 13:13 31.15235 121.80891 22 ft 1 kts 343°
2026-04-30 13:13 31.15233 121.80892 22 ft 0 kts 342°
2026-04-30 13:15 31.15255 121.80884 22 ft 3 kts 342°
2026-04-30 13:15 31.15285 121.80872 22 ft 6 kts 343°
2026-04-30 13:16 31.15338 121.80853 22 ft 9 kts 341°
2026-04-30 13:16 31.15401 121.80828 22 ft 10 kts 342°
2026-04-30 13:16 31.15474 121.80801 22 ft 11 kts 342°
2026-04-30 13:17 31.15657 121.80759 22 ft 14 kts 37°
2026-04-30 13:17 31.15699 121.80868 21 ft 15 kts 72°
2026-04-30 13:17 31.15759 121.81082 18 ft 17 kts 72°
2026-04-30 13:18 31.15734 121.81239 19 ft 16 kts 159°
2026-04-30 13:18 31.15673 121.81262 19 ft 0 kts 162°
2026-04-30 13:18 31.15505 121.81325 19 ft 68 kts 162°
2026-04-30 13:19 31.14768 121.81604 22 ft 149 kts 162°
2026-04-30 13:19 31.13668 121.82020 525 ft 175 kts 163°
2026-04-30 13:19 31.12514 121.82487 1442 ft 181 kts 161°
2026-04-30 13:19 31.11319 121.82973 2249 ft 188 kts 163°
2026-04-30 13:20 31.10022 121.83463 2788 ft 209 kts 163°
2026-04-30 13:20 31.08521 121.84066 2970 ft 250 kts 155°
2026-04-30 13:20 31.06961 121.85155 2947 ft 269 kts 146°
2026-04-30 13:20 31.05414 121.86432 3077 ft 278 kts 144°
2026-04-30 13:21 31.03828 121.87779 3872 ft 286 kts 143°
2026-04-30 13:21 31.02234 121.89134 4809 ft 285 kts 143°
2026-04-30 13:21 31.00621 121.90505 5457 ft 288 kts 143°
2026-04-30 13:22 30.97438 121.93412 5873 ft 291 kts 127°
2026-04-30 13:22 30.96535 121.95495 5880 ft 286 kts 99°
2026-04-30 13:22 30.97367 121.99680 5885 ft 265 kts 43°
2026-04-30 13:23 30.98832 122.00870 5886 ft 256 kts 15°
2026-04-30 13:23 31.02297 122.00670 5896 ft 250 kts 345°
2026-04-30 13:24 31.05655 121.99632 5890 ft 250 kts 343°
2026-04-30 13:24 31.09009 121.98566 5890 ft 250 kts 343°
2026-04-30 13:25 31.12377 121.97497 5889 ft 249 kts 343°
2026-04-30 13:25 31.15742 121.96429 5889 ft 250 kts 343°
2026-04-30 13:26 31.20765 121.94830 5890 ft 249 kts 343°
2026-04-30 13:26 31.24143 121.93759 5889 ft 250 kts 343°
2026-04-30 13:27 31.26868 121.91494 5891 ft 250 kts 307°
2026-04-30 13:28 31.29663 121.86292 5890 ft 252 kts 303°
2026-04-30 13:28 31.31486 121.82805 5890 ft 251 kts 303°
2026-04-30 13:28 31.32393 121.81061 5889 ft 251 kts 303°
2026-04-30 13:29 31.34219 121.77568 5890 ft 252 kts 303°
2026-04-30 13:29 31.36053 121.74062 5890 ft 252 kts 303°
2026-04-30 13:30 31.38688 121.68793 5878 ft 255 kts 290°
2026-04-30 13:31 31.38563 121.64588 5892 ft 262 kts 264°
2026-04-30 13:31 31.37974 121.58356 5218 ft 256 kts 273°
2026-04-30 13:32 31.37955 121.54210 4431 ft 255 kts 274°
2026-04-30 13:32 31.37969 121.50092 3684 ft 253 kts 274°
2026-04-30 13:33 31.38004 121.45991 2929 ft 251 kts 274°
2026-04-30 13:33 31.38071 121.41944 2290 ft 245 kts 274°
2026-04-30 13:34 31.38107 121.39990 2121 ft 236 kts 274°
2026-04-30 13:34 31.38101 121.34673 1962 ft 197 kts 254°
2026-04-30 13:35 31.37346 121.33443 2013 ft 182 kts 218°
2026-04-30 13:35 31.35176 121.32450 1987 ft 165 kts 188°
2026-04-30 13:36 31.32977 121.32735 1968 ft 151 kts 173°
2026-04-30 13:36 31.31936 121.32896 1975 ft 151 kts 174°
2026-04-30 13:36 31.29836 121.33094 1708 ft 149 kts 178°
2026-04-30 13:37 31.28794 121.33151 1507 ft 148 kts 179°
2026-04-30 13:37 31.26765 121.33257 1126 ft 144 kts 178°
2026-04-30 13:38 31.24780 121.33376 734 ft 140 kts 178°
2026-04-30 13:38 31.23808 121.33417 557 ft 138 kts 178°
2026-04-30 13:38 31.21912 121.33518 182 ft 135 kts 177°
2026-04-30 13:39 31.20147 121.33611 15 ft 95 kts 177°
2026-04-30 13:39 31.19422 121.33655 14 ft 34 kts 170°
2026-04-30 13:40 31.19275 121.33708 11 ft 19 kts 155°
2026-04-30 13:40 31.19161 121.33791 10 ft 19 kts 147°
2026-04-30 13:40 31.19076 121.33864 10 ft 10 kts 109°
2026-04-30 13:40 31.19126 121.33920 9 ft 12 kts
2026-04-30 13:41 31.19230 121.33914 9 ft 18 kts 357°
2026-04-30 13:41 31.19338 121.33916 9 ft 10 kts 30°
2026-04-30 13:41 31.19381 121.33980 10 ft 10 kts 34°
2026-04-30 13:41 31.19449 121.33989 11 ft 9 kts 358°
2026-04-30 13:42 31.19516 121.33985 12 ft 9 kts 358°
2026-04-30 13:42 31.19581 121.33984 14 ft 9 kts 359°
2026-04-30 13:42 31.19672 121.33987 15 ft 4 kts 27°
2026-04-30 13:43 31.19690 121.34009 16 ft 2 kts 61°
2026-04-30 13:43 31.19695 121.34027 16 ft 1 kts 77°
2026-04-30 13:43 31.19696 121.34041 17 ft 1 kts 86°
2026-04-30 13:43 31.19696 121.34049 17 ft 0 kts 86°
2026-04-30 13:44 31.19697 121.34055 17 ft 0 kts 86°
2026-04-30 13:44 31.19697 121.34062 17 ft 0 kts 87°
2026-04-30 13:44 31.19697 121.34067 17 ft 0 kts 87°
2026-04-30 13:44 31.19697 121.34069 17 ft 0 kts 87°